Temp
71 70 71 70 69 69 67 67 66 67 67 68 68 70 72 71 72 71 75 75 75 76 76 71 70 69 70 71 69 70 74 75 74 73 73 75 69 70 75 74 75 75 78 79 77 74 71 67 68 72 74 72 73 75 75 75 74 75 74 74 74 75 78
73 73 73 72 69 67 66 65 66 66 66 67 68 69 71 72 72 73 73 74 74 74 77 76 73 76 75 75 73 74 71 72 74 74 73 73 74 74 73 73 75 76 76 77 77 75 72 69 69 68 69 72 73 74 74 75 75 74 74 75 76 75 76
73 72 70 69 66 65 64 65 66 66 66 66 68 69 71 73 73 73 72 74 73 75 75 77 78 78 77 76 76 75 67 68 74 73 73 74 75 76 76 75 73 73 74 75 74 74 73 72 67 67 71 66 64 70 73 73 74 74 75 75 74 77 76
72 71 68 69 67 63 64 65 65 65 65 66 67 69 70 71 72 73 74 74 73 74 75 77 77 79 78 76 75 75 73 73 74 74 73 74 75 75 75 75 74 74 73 72 72 74 73 71 70 71 73 74 71 69 71 74 75 77 77 75 75 76 76
73 72 70 66 66 65 65 65 65 65 65 66 67 67 67 69 71 73 74 74 72 72 72 74 78 79 79 78 76 74 73 74 75 73 73 73 73 75 74 75 74 75 75 74 75 74 73 71 71 71 73 76 77 75 75 72 75 75 75 76 77 75 74
72 71 72 67 68 67 66 64 65 65 66 66 66 67 67 68 70 72 72 72 73 69 68 71 77 79 79 78 77 74 71 74 74 73 73 73 73 74 73 74 76 76 76 77 77 75 75 74 71 71 75 78 72 73 75 73 71 75 77 76 77 77 77
73 73 73 73 70 71 70 67 66 65 65 67 70 69 70 72 71 70 72 73 73 72 68 71 76 78 78 79 77 75 74 75 75 74 74 74 74 74 75 73 75 77 76 77 77 76 74 73 72 71 72 74 74 74 76 74 75 72 73 76 78 79 78
73 73 74 75 73 71 73 73 71 68 67 67 68 70 71 72 72 71 71 71 72 72 72 70 74 77 77 78 78 72 71 76 75 75 75 74 74 74 74 73 75 75 77 78 77 76 75 76 76 73 73 69 69 72 71 75 75 74 75 75 77 78 78
71 72 73 74 75 74 74 73 73 71 70 68 69 69 68 69 70 70 71 71 70 70 72 73 76 76 74 74 74 73 70 76 76 75 76 75 73 72 74 76 76 76 77 79 80 78 79 78 77 76 75 74 70 66 69 69 72 74 77 73 76 79 79
71 71 73 73 73 74 73 71 72 72 71 70 71 71 70 69 69 70 68 68 71 71 71 74 76 76 74 70 70 72 73 78 77 78 76 75 70 74 72 75 75 71 70 73 76 78 77 77 79 79 79 76 74 71 67 67 68 70 75 78 74 77 80
72 72 71 72 73 73 73 73 73 72 71 72 72 70 70 68 67 69 69 70 71 73 73 75 77 76 73 69 71 76 78 78 77 77 77 76 73 72 74 75 72 70 71 69 71 73 78 77 78 79 79 80 77 69 72 69 69 72 73 77 79 75 79
72 72 72 72 71 69 71 73 73 72 72 73 71 70 70 70 69 70 72 73 73 73 71 73 75 73 70 67 69 74 76 76 76 75 75 75 76 76 75 75 75 73 72 69 72 75 77 78 78 80 79 80 78 71 74 74 70 73 78 73 78 82 80
70 72 72 71 69 69 70 72 74 73 72 73 72 72 70 70 71 71 73 74 75 75 74 73 70 69 69 69 72 69 74 76 75 75 75 76 79 77 75 75 74 75 75 76 77 76 77 78 78 80 79 79 78 76 76 75 72 71 76 77 77 80 81
69 71 69 69 69 70 70 71 73 73 74 72 72 72 72 72 73 73 73 73 75 73 73 70 70 74 74 72 72 72 77 78 77 77 77 76 78 78 72 76 74 75 75 73 72 78 78 79 78 78 79 78 78 77 76 74 73 72 74 78 78 79 80
68 67 66 67 69 70 70 69 71 73 72 72 73 74 76 75 74 74 73 71 70 73 70 70 72 76 75 72 75 75 77 77 77 78 76 76 77 76 74 67 72 73 78 74 75 80 80 80 80 79 80 79 79 77 78 78 76 73 68 74 76 80 78
65 65 67 68 68 68 68 69 71 71 72 74 75 74 75 76 75 74 72 69 71 72 68 69 70 69 71 73 75 76 77 77 76 76 75 75 76 73 72 69 69 69 74 76 76 78 79 80 81 81 79 80 80 78 79 80 78 73 71 72 76 77 76
63 63 64 67 68 69 69 69 71 70 70 72 73 74 75 77 75 73 71 71 71 70 68 67 67 70 71 77 77 77 77 77 76 75 76 74 72 71 75 76 77 75 76 75 76 76 79 79 78 80 80 79 79 78 78 78 80 77 75 73 74 79 78
61 60 60 63 66 68 68 69 70 71 71 70 72 74 74 76 76 75 72 73 75 72 68 67 68 67 68 70 73 76 77 77 76 75 74 72 70 71 76 76 77 78 76 75 75 76 78 77 80 79 80 81 79 79 78 78 80 80 76 74 74 78 78
61 59 59 60 62 64 66 68 69 70 71 71 71 71 70 74 75 75 74 75 76 74 71 68 67 68 69 73 76 76 77 75 72 74 72 71 73 76 76 77 77 78 77 75 75 75 77 77 79 79 79 80 80 80 77 77 78 78 78 77 74 73 76
61 61 61 62 63 65 67 68 69 70 71 71 71 70 70 72 74 74 75 76 75 75 72 71 69 68 68 72 77 78 77 76 70 68 70 70 75 78 77 78 77 77 77 76 75 76 76 75 76 76 77 76 81 78 76 76 78 78 76 76 76 75 75
63 62 62 63 64 65 66 67 68 69 70 70 69 70 70 70 73 73 74 75 76 75 73 71 70 69 69 70 74 78 78 76 77 72 72 76 77 77 77 77 77 77 78 78 77 76 76 75 76 75 74 76 77 76 75 75 76 77 76 75 75 74 75
63 63 63 63 63 63 65 66 68 68 68 69 69 70 71 69 69 70 75 74 75 74 73 72 71 70 69 71 75 77 77 78 77 76 76 76 77 77 77 77 77 78 76 73 66 66 69 70 75 71 65 66 70 74 74 75 75 76 76 74 74 75 74
64 64 63 62 62 63 64 66 67 68 68 68 69 70 72 71 69 69 70 75 74 72 73 73 67 59 61 72 74 78 77 76 77 76 75 75 75 76 77 77 76 65 61 58 57 53 51 50 57 66 67 70 71 73 74 74 74 75 74 74 74 74 72
63 63 62 62 62 62 63 63 64 65 66 67 68 69 68 69 69 68 67 68 72 73 72 72 56 53 53 56 73 76 76 76 76 75 74 73 73 74 76 78 76 64 65 61 61 48 51 47 51 54 55 60 66 74 73 72 74 74 73 74 75 74 73
63 62 61 62 62 62 61 61 60 59 61 64 67 68 66 66 66 67 66 70 70 69 70 56 48 49 49 51 59 75 76 75 74 74 74 72 70 72 74 75 75 73 73 73 73 67 56 46 49 49 50 51 53 52 55 67 67 70 69 74 74 74 74
62 62 61 61 61 60 60 59 58 57 56 58 62 64 66 66 66 66 66 64 65 65 66 48 45 47 47 48 49 62 78 76 74 73 73 74 74 72 72 71 72 72 74 62 69 73 71 62 48 46 48 49 49 47 49 50 53 67 68 71 75 74 74
60 61 61 61 60 59 58 57 57 56 55 54 54 55 57 58 59 60 61 63 64 64 59 44 40 42 44 45 46 54 77 76 74 74 74 73 74 74 73 72 71 71 70 70 73 72 71 69 66 65 66 69 69 56 48 48 50 47 59 76 76 74 75
60 60 60 60 59 58 56 55 55 55 54 51 50 51 51 53 55 56 57 57 59 57 51 40 40 39 41 43 44 49 75 75 73 73 74 74 74 74 75 74 73 72 71 71 72 70 71 70 70 68 69 70 69 66 62 64 66 71 76 77 77 75 74
60 60 59 59 57 56 55 54 53 54 54 53 51 50 51 51 50 52 53 56 55 53 48 39 40 40 40 42 43 66 74 73 73 74 74 74 74 75 74 74 73 70 70 71 60 53 62 72 70 67 65 63 60 58 54 46 40 43 56 63 65 63 57
58 59 58 57 56 54 54 54 53 53 53 52 50 49 48 47 48 49 49 50 51 50 47 41 39 41 41 42 49 71 72 72 73 72 72 72 73 73 74 73 73 71 70 69 52 48 51 58 68 67 66 64 64 63 59 54 44 41 40 40 39 39 39
57 57 57 56 55 54 54 54 54 53 51 50 49 49 49 49 48 47 46 47 47 47 46 43 40 40 39 39 46 67 70 71 70 71 70 70 70 67 58 49 62 71 67 65 44 48 48 62 69 67 65 63 62 61 60 61 58 51 43 41 41 41 42
55 56 56 56 55 53 53 53 54 53 52 51 50 50 49 48 48 49 47 44 45 45 45 43 40 40 40 41 49 66 68 69 67 67 67 65 65 63 60 54 45 53 61 52 42 47 49 63 68 66 64 63 61 60 59 59 60 60 60 60 61 62 59
52 53 56 56 56 54 54 53 53 53 52 52 51 51 50 50 48 47 47 44 43 43 44 43 41 39 41 42 43 60 64 64 65 65 65 64 61 60 60 58 50 40 40 40 41 41 46 54 66 66 66 64 60 58 61 62 62 64 64 64 63 63 63
51 51 54 56 57 56 55 53 52 52 51 52 52 50 49 49 49 46 46 45 45 44 43 43 41 39 40 41 42 47 55 59 64 64 62 58 56 54 53 52 51 41 39 39 40 41 41 42 50 67 67 65 65 61 59 62 60 55 63 62 62 63 65
52 52 53 55 56 55 56 56 54 52 52 51 50 49 50 50 49 48 47 46 47 46 45 43 42 40 39 39 40 43 51 50 55 60 55 53 50 47 47 46 45 40 38 39 39 40 40 42 44 55 53 46 45 48 62 62 63 64 63 63 64 64 65
52 52 52 54 55 56 57 57 56 55 53 51 50 49 48 49 49 48 47 46 45 45 45 44 41 41 39 38 39 40 41 46 44 53 52 49 47 45 45 44 42 39 38 38 39 39 41 41 45 47 40 42 43 46 54 63 62 62 62 62 61 61 61
55 53 52 52 53 55 56 57 55 54 54 53 51 50 49 49 48 48 47 46 45 44 44 44 42 40 40 38 38 38 39 39 42 49 50 47 46 45 45 43 39 37 38 38 38 38 38 40 42 39 41 42 45 48 58 58 59 59 56 56 56 57 57
MSLP
1016.87 1016.91 1016.71 1016.59 1016.55 1016.67 1017.11 1017.43 1017.51 1017.55 1017.51 1017.47 1017.51 1017.35 1017.39 1017.59 1017.51 1017.59 1017.27 1017.35 1017.43 1017.51 1017.59 1018.11 1018.31 1018.59 1018.99 1018.99 1019.07 1019.07 1018.71 1018.55 1018.87 1019.19 1019.39 1019.31 1020.27 1020.47 1019.99 1020.23 1020.31 1020.19 1019.87 1019.75 1019.99 1020.47 1020.95 1021.91 1022.27 1021.67 1021.43 1021.79 1021.79 1021.75 1021.83 1022.11 1022.27 1022.31 1022.55 1022.55 1022.55 1022.47 1022.19
1016.63 1016.59 1016.47 1016.59 1016.91 1017.07 1017.31 1017.47 1017.63 1017.67 1017.75 1017.67 1017.55 1017.27 1017.07 1016.99 1017.07 1017.15 1017.23 1017.19 1017.19 1017.27 1017.19 1017.39 1017.79 1017.79 1017.95 1017.99 1018.07 1018.07 1018.51 1018.71 1018.63 1018.75 1018.99 1019.27 1019.55 1019.67 1020.07 1020.31 1020.11 1020.11 1020.07 1019.91 1020.03 1020.19 1020.67 1021.23 1021.47 1022.07 1022.15 1021.83 1021.75 1021.79 1021.99 1021.99 1022.15 1022.31 1022.43 1022.47 1022.47 1022.51 1022.47
1016.59 1016.63 1016.67 1016.87 1017.19 1017.31 1017.55 1017.67 1017.63 1017.71 1017.71 1017.55 1017.39 1017.27 1017.07 1016.87 1016.83 1016.91 1017.03 1016.95 1016.95 1016.91 1016.91 1016.83 1016.87 1017.03 1017.35 1017.51 1017.55 1017.71 1018.95 1019.11 1018.47 1018.67 1018.83 1018.99 1019.19 1019.23 1019.43 1019.75 1020.23 1020.27 1020.19 1020.19 1020.31 1020.35 1020.59 1020.51 1021.43 1021.71 1021.39 1022.47 1022.91 1022.23 1022.07 1022.15 1022.19 1022.31 1022.31 1022.39 1022.51 1022.39 1022.43
1016.47 1016.55 1016.91 1016.87 1016.99 1017.51 1017.59 1017.63 1017.71 1017.63 1017.55 1017.51 1017.43 1017.31 1017.03 1016.75 1016.67 1016.71 1016.67 1016.63 1016.71 1016.67 1016.71 1016.63 1016.63 1016.67 1016.91 1017.15 1017.31 1017.43 1017.83 1018.11 1018.31 1018.51 1018.79 1018.83 1018.95 1019.15 1019.39 1019.55 1019.79 1019.91 1020.07 1020.31 1020.27 1020.19 1020.35 1020.71 1020.95 1020.91 1020.87 1021.23 1021.75 1022.31 1022.19 1021.95 1021.99 1022.03 1022.15 1022.39 1022.47 1022.47 1022.47
1016.23 1016.23 1016.47 1017.11 1016.99 1017.23 1017.39 1017.51 1017.55 1017.55 1017.43 1017.43 1017.43 1017.55 1017.47 1017.03 1016.71 1016.55 1016.43 1016.35 1016.51 1016.59 1016.79 1016.59 1016.31 1016.31 1016.51 1016.79 1017.03 1017.35 1017.59 1017.79 1017.95 1018.39 1018.67 1018.95 1019.03 1019.03 1019.35 1019.35 1019.51 1019.35 1019.39 1019.67 1019.55 1019.67 1020.11 1020.31 1020.43 1020.59 1020.87 1020.59 1020.83 1021.23 1021.71 1021.95 1021.91 1022.15 1022.27 1022.31 1022.23 1022.47 1022.55
1015.95 1016.15 1016.11 1016.67 1016.71 1016.71 1016.75 1017.11 1017.35 1017.35 1017.19 1017.23 1017.15 1017.31 1017.43 1017.23 1016.71 1016.43 1016.31 1016.27 1016.23 1016.91 1017.19 1016.95 1016.15 1016.07 1016.23 1016.55 1016.79 1017.15 1017.63 1017.67 1017.79 1018.19 1018.55 1018.79 1018.91 1018.99 1019.27 1019.31 1019.15 1019.07 1019.23 1019.11 1019.15 1019.43 1019.47 1019.71 1020.27 1020.55 1020.43 1020.31 1021.15 1021.31 1021.63 1021.91 1022.43 1022.19 1022.11 1022.23 1022.19 1022.27 1022.31
1015.79 1015.83 1015.79 1015.75 1016.15 1016.03 1016.11 1016.31 1016.43 1016.55 1016.67 1016.71 1016.59 1016.51 1016.31 1016.31 1016.19 1015.99 1015.87 1015.83 1015.95 1016.47 1017.03 1016.75 1016.03 1015.79 1015.95 1016.19 1016.43 1016.71 1017.23 1017.27 1017.55 1017.95 1018.27 1018.43 1018.63 1018.75 1018.79 1019.11 1018.99 1018.87 1019.03 1018.83 1019.03 1019.19 1019.63 1019.99 1020.07 1020.31 1020.43 1020.59 1020.79 1021.03 1021.19 1021.63 1021.79 1022.43 1022.43 1022.15 1022.03 1021.95 1022.07
1015.63 1015.63 1015.51 1015.31 1015.51 1015.71 1015.51 1015.55 1015.59 1015.71 1015.99 1016.23 1016.31 1016.07 1015.87 1015.79 1015.79 1015.91 1015.75 1015.67 1015.75 1015.95 1016.15 1016.43 1016.11 1015.63 1015.71 1015.87 1015.87 1016.71 1017.23 1016.87 1017.23 1017.63 1017.91 1018.11 1018.35 1018.59 1018.75 1018.83 1018.75 1018.75 1018.75 1018.83 1019.03 1019.07 1019.35 1019.31 1019.47 1019.79 1020.23 1021.19 1021.43 1021.11 1021.51 1021.19 1021.63 1021.83 1021.83 1022.15 1022.03 1021.87 1021.95
1015.79 1015.63 1015.47 1015.19 1015.11 1015.19 1015.23 1015.23 1015.39 1015.67 1015.83 1015.99 1015.87 1015.79 1015.75 1015.71 1015.67 1015.71 1015.75 1015.71 1015.87 1015.87 1015.75 1015.67 1015.35 1015.35 1015.55 1015.71 1015.79 1016.23 1017.11 1016.59 1016.87 1017.39 1017.51 1017.71 1018.07 1018.47 1018.47 1018.39 1018.55 1018.83 1018.79 1018.71 1018.63 1018.79 1018.71 1018.83 1019.07 1019.39 1019.75 1020.23 1020.91 1021.95 1021.71 1021.87 1021.59 1021.39 1021.23 1022.07 1021.95 1021.63 1021.79
1015.75 1015.67 1015.47 1015.31 1015.27 1015.07 1015.11 1015.23 1015.23 1015.31 1015.51 1015.63 1015.47 1015.27 1015.23 1015.19 1015.39 1015.59 1016.07 1015.95 1015.51 1015.51 1015.67 1015.27 1014.95 1014.99 1015.43 1016.15 1016.27 1015.95 1016.39 1016.03 1016.63 1017.03 1017.23 1017.51 1018.31 1018.07 1018.47 1018.27 1018.59 1019.11 1019.51 1019.19 1018.87 1018.63 1018.79 1018.87 1018.75 1018.87 1019.15 1019.51 1019.95 1020.67 1021.67 1021.83 1021.91 1021.63 1021.35 1021.23 1021.91 1021.71 1021.47
1015.51 1015.47 1015.39 1015.39 1015.23 1015.19 1015.11 1015.11 1015.07 1015.23 1015.27 1015.15 1015.03 1014.83 1014.63 1014.79 1014.87 1015.07 1015.55 1015.75 1015.43 1015.07 1015.07 1014.91 1014.63 1014.79 1015.23 1016.15 1016.11 1015.39 1015.59 1015.91 1016.47 1016.71 1016.95 1017.15 1017.63 1018.07 1018.03 1018.19 1018.63 1018.95 1019.15 1019.27 1019.27 1019.07 1018.51 1018.79 1018.79 1018.75 1019.03 1018.87 1019.19 1020.43 1020.31 1021.15 1021.35 1021.11 1021.11 1020.99 1020.87 1021.51 1021.35
1015.51 1015.35 1015.31 1015.31 1015.31 1015.39 1015.23 1014.99 1015.03 1015.03 1014.95 1014.83 1014.95 1014.99 1014.75 1014.71 1014.87 1014.91 1014.99 1015.07 1014.91 1014.79 1014.99 1014.91 1014.67 1014.95 1015.67 1016.23 1016.19 1015.39 1015.43 1015.87 1016.31 1016.67 1016.79 1017.07 1017.15 1017.43 1017.87 1017.99 1018.03 1018.55 1018.83 1019.15 1018.95 1018.55 1018.43 1018.59 1018.75 1018.63 1018.83 1018.75 1018.95 1020.07 1019.79 1020.07 1020.59 1020.75 1020.19 1021.23 1020.67 1020.35 1020.95
1015.71 1015.35 1015.23 1015.31 1015.39 1015.39 1015.19 1014.95 1014.75 1014.75 1014.59 1014.51 1014.63 1014.75 1014.75 1014.59 1014.55 1014.67 1014.59 1014.51 1014.31 1014.31 1014.43 1014.67 1015.27 1015.63 1015.75 1015.71 1015.47 1016.03 1015.67 1015.75 1016.23 1016.47 1016.67 1016.79 1016.91 1017.07 1017.51 1017.79 1018.07 1018.11 1018.11 1018.11 1018.15 1018.27 1018.35 1018.43 1018.39 1018.39 1018.55 1018.75 1018.99 1019.31 1019.55 1019.95 1020.11 1020.67 1020.27 1020.47 1020.67 1020.63 1020.75
1015.75 1015.39 1015.27 1015.23 1015.27 1015.19 1015.11 1014.99 1014.83 1014.63 1014.43 1014.51 1014.47 1014.51 1014.51 1014.43 1014.35 1014.35 1014.43 1014.43 1014.39 1014.51 1014.47 1014.91 1015.11 1014.71 1014.63 1014.95 1015.19 1015.43 1015.27 1015.63 1015.95 1016.03 1016.31 1016.71 1016.67 1016.67 1017.35 1017.35 1017.87 1017.83 1017.95 1018.39 1018.47 1018.07 1018.19 1018.19 1018.39 1018.35 1018.27 1018.63 1018.87 1019.19 1019.47 1019.79 1020.11 1020.39 1020.55 1020.15 1020.43 1020.67 1020.67
1015.83 1015.63 1015.59 1015.35 1015.19 1015.15 1015.15 1015.11 1014.91 1014.67 1014.55 1014.35 1014.27 1014.23 1014.07 1014.03 1014.07 1014.19 1014.43 1014.95 1015.07 1014.63 1014.79 1015.03 1014.71 1014.31 1014.27 1014.75 1014.59 1014.99 1015.07 1015.55 1015.83 1015.83 1016.19 1016.55 1016.47 1016.63 1016.83 1018.07 1017.75 1017.83 1017.59 1018.23 1018.03 1017.67 1017.75 1017.87 1017.99 1018.23 1018.23 1018.35 1018.59 1018.91 1018.95 1019.27 1019.51 1020.15 1021.23 1020.75 1020.59 1020.35 1020.91
1016.43 1016.07 1015.63 1015.43 1015.39 1015.31 1015.23 1015.11 1014.87 1014.75 1014.47 1014.19 1014.03 1014.03 1013.87 1013.79 1013.87 1014.03 1014.23 1014.39 1014.39 1014.39 1014.79 1015.15 1015.31 1015.47 1014.91 1014.63 1014.63 1014.71 1014.95 1015.27 1015.67 1015.87 1016.07 1016.31 1016.43 1016.87 1017.07 1017.63 1017.87 1017.91 1017.67 1017.63 1017.75 1017.51 1017.27 1017.51 1017.47 1017.79 1017.95 1018.07 1018.19 1018.55 1018.71 1018.71 1019.03 1019.91 1020.55 1020.75 1020.43 1020.59 1020.83
1016.67 1016.51 1016.23 1015.67 1015.43 1015.15 1015.07 1015.07 1014.83 1014.79 1014.55 1014.31 1014.07 1013.91 1013.83 1013.67 1013.71 1013.87 1014.19 1014.27 1014.35 1014.59 1014.79 1015.11 1015.43 1015.59 1015.19 1014.27 1014.27 1014.43 1014.79 1015.15 1015.55 1015.87 1015.95 1016.31 1016.63 1016.87 1016.63 1016.67 1016.63 1017.07 1017.15 1017.51 1017.51 1017.51 1017.23 1017.31 1017.47 1017.39 1017.63 1017.83 1017.95 1018.31 1018.47 1018.71 1018.59 1019.07 1019.79 1020.39 1020.39 1020.19 1020.47
1017.07 1016.99 1016.67 1016.15 1015.63 1015.27 1015.11 1015.03 1014.87 1014.63 1014.47 1014.39 1014.15 1013.95 1013.79 1013.51 1013.51 1013.59 1013.79 1013.83 1013.87 1014.23 1014.39 1014.43 1014.63 1015.43 1015.63 1015.11 1014.47 1014.35 1014.59 1014.99 1015.39 1015.71 1015.91 1016.19 1016.43 1016.63 1016.19 1016.43 1016.47 1016.59 1016.95 1017.23 1017.31 1017.35 1017.19 1017.39 1017.31 1017.27 1017.39 1017.43 1018.07 1018.11 1018.39 1018.63 1018.47 1018.63 1019.35 1019.99 1020.31 1019.79 1020.07
1017.03 1016.99 1016.75 1016.39 1015.99 1015.55 1015.19 1014.99 1014.75 1014.55 1014.35 1014.23 1014.03 1013.87 1014.15 1013.51 1013.39 1013.39 1013.47 1013.47 1013.51 1013.79 1014.03 1014.27 1014.27 1014.63 1015.23 1014.87 1014.27 1014.35 1014.47 1014.95 1015.63 1015.67 1015.87 1015.95 1016.07 1015.95 1015.95 1016.19 1016.27 1016.39 1016.71 1017.03 1017.11 1017.15 1017.03 1017.15 1017.19 1017.19 1017.27 1017.19 1017.67 1017.87 1018.39 1018.59 1018.59 1018.75 1019.03 1019.39 1019.95 1020.39 1020.23
1017.03 1016.87 1016.59 1016.23 1015.87 1015.55 1015.19 1014.87 1014.67 1014.43 1014.11 1014.03 1013.95 1013.83 1013.83 1013.75 1013.35 1013.35 1013.19 1013.15 1013.23 1013.47 1013.83 1014.03 1014.19 1014.31 1014.59 1014.75 1014.15 1014.23 1014.39 1014.67 1015.67 1015.91 1015.67 1015.99 1015.79 1015.59 1015.79 1015.95 1016.07 1016.19 1016.43 1016.59 1016.75 1016.87 1016.99 1017.07 1017.15 1017.23 1017.27 1017.39 1017.19 1017.71 1018.35 1018.55 1018.59 1018.87 1019.11 1019.39 1019.79 1019.99 1020.27
1017.07 1016.83 1016.63 1016.31 1015.95 1015.55 1015.19 1014.79 1014.51 1014.31 1014.07 1013.91 1013.83 1013.75 1013.63 1013.67 1013.39 1013.35 1013.23 1013.15 1013.11 1013.31 1013.71 1013.95 1014.15 1014.27 1014.31 1014.87 1014.47 1014.19 1014.27 1014.51 1014.55 1015.39 1015.55 1015.31 1015.27 1015.51 1015.71 1015.79 1015.87 1015.95 1016.03 1016.15 1016.31 1016.47 1016.67 1016.99 1016.99 1017.31 1017.47 1017.43 1017.43 1017.83 1018.39 1018.47 1018.63 1018.75 1019.15 1019.35 1019.71 1019.95 1020.03
1017.15 1016.87 1016.63 1016.35 1016.03 1015.71 1015.27 1014.79 1014.39 1014.23 1014.07 1013.91 1013.71 1013.55 1013.43 1013.63 1013.83 1013.75 1013.15 1013.19 1013.23 1013.39 1013.55 1013.71 1013.95 1014.15 1014.31 1014.43 1014.43 1014.23 1014.31 1014.35 1014.51 1014.63 1014.91 1015.11 1015.15 1015.35 1015.55 1015.59 1015.63 1015.59 1015.75 1015.99 1016.19 1016.35 1016.39 1016.55 1017.03 1017.75 1018.55 1018.47 1018.11 1018.11 1018.31 1018.39 1018.55 1018.63 1018.87 1019.23 1019.59 1019.51 1019.87
1017.27 1016.95 1016.67 1016.47 1016.19 1015.87 1015.43 1014.83 1014.35 1014.15 1013.99 1013.79 1013.63 1013.47 1013.39 1013.43 1013.67 1013.75 1013.51 1012.95 1013.11 1013.31 1013.35 1013.55 1013.83 1014.07 1014.15 1013.99 1014.15 1013.95 1014.11 1014.27 1014.35 1014.51 1014.87 1015.03 1015.15 1015.23 1015.27 1015.31 1015.35 1016.07 1016.79 1016.91 1016.95 1017.15 1017.51 1017.51 1017.79 1017.87 1018.23 1018.11 1018.27 1018.19 1018.19 1018.31 1018.43 1018.47 1018.67 1019.03 1019.15 1019.39 1019.79
1017.55 1017.23 1016.99 1016.63 1016.35 1016.07 1015.67 1015.35 1014.83 1014.35 1014.07 1013.87 1013.71 1013.55 1013.47 1013.39 1013.35 1013.51 1013.55 1013.55 1013.11 1013.19 1013.31 1013.55 1013.75 1013.83 1014.03 1013.83 1013.67 1013.83 1013.99 1014.19 1014.23 1014.47 1014.71 1014.99 1015.11 1015.23 1015.15 1015.11 1015.43 1016.47 1016.43 1016.79 1016.87 1017.07 1017.19 1017.59 1017.43 1017.51 1017.63 1017.67 1017.67 1017.83 1018.03 1018.23 1018.11 1018.15 1018.47 1018.47 1018.63 1019.03 1019.31
1017.75 1017.55 1017.31 1016.99 1016.71 1016.43 1016.11 1015.79 1015.63 1015.39 1014.79 1014.15 1013.59 1013.39 1013.47 1013.43 1013.39 1013.43 1013.51 1013.27 1013.27 1013.59 1013.67 1013.91 1014.23 1014.59 1014.55 1013.95 1013.79 1013.75 1013.87 1014.03 1014.19 1014.39 1014.51 1014.87 1015.43 1015.35 1015.15 1015.23 1015.31 1015.75 1016.03 1016.19 1016.51 1016.99 1017.55 1017.75 1017.67 1017.67 1017.87 1017.95 1017.99 1018.11 1018.15 1018.47 1019.03 1018.43 1018.63 1018.15 1018.43 1018.63 1018.83
1018.11 1017.83 1017.55 1017.27 1017.11 1016.83 1016.59 1016.35 1016.07 1015.83 1015.71 1015.31 1014.51 1013.87 1013.47 1013.39 1013.27 1013.15 1013.23 1013.47 1013.75 1013.91 1014.15 1014.51 1014.31 1014.27 1014.71 1014.31 1013.95 1013.91 1013.67 1013.83 1014.03 1014.27 1014.43 1014.55 1014.83 1015.23 1015.23 1015.43 1015.63 1015.75 1015.91 1016.51 1016.51 1016.55 1016.99 1017.75 1017.99 1017.87 1018.15 1018.47 1018.55 1018.59 1018.67 1018.63 1018.51 1018.55 1019.47 1018.55 1018.07 1018.43 1018.55
1018.59 1018.23 1017.91 1017.67 1017.51 1017.35 1017.11 1016.95 1016.71 1016.51 1016.35 1015.99 1015.67 1015.23 1014.87 1014.51 1014.31 1014.07 1013.83 1013.59 1013.55 1013.75 1014.19 1014.67 1015.11 1015.07 1015.07 1014.47 1014.15 1014.07 1013.63 1013.71 1013.95 1014.11 1014.35 1014.47 1014.63 1014.83 1015.03 1015.27 1015.67 1015.91 1016.11 1016.35 1016.27 1016.47 1016.79 1017.11 1017.63 1017.99 1018.07 1018.03 1018.19 1018.63 1018.79 1018.79 1018.59 1018.55 1018.43 1017.87 1017.87 1018.31 1018.43
1018.95 1018.71 1018.39 1018.15 1017.99 1017.83 1017.79 1017.67 1017.39 1017.07 1016.91 1016.91 1016.63 1016.31 1015.99 1015.63 1015.39 1015.15 1014.95 1014.79 1014.47 1014.63 1015.11 1015.23 1015.11 1015.11 1015.47 1015.07 1014.35 1014.31 1013.67 1013.67 1013.95 1014.19 1014.31 1014.47 1014.55 1014.71 1014.87 1015.07 1015.23 1015.55 1015.87 1016.03 1016.11 1016.35 1016.59 1016.91 1017.19 1017.51 1017.71 1017.87 1018.11 1018.43 1018.87 1019.11 1018.87 1018.59 1018.07 1017.79 1017.79 1018.23 1018.59
1019.31 1019.03 1018.83 1018.67 1018.51 1018.39 1018.27 1018.11 1017.99 1017.67 1017.39 1017.27 1017.23 1016.99 1016.67 1016.43 1016.27 1015.99 1015.71 1015.39 1015.27 1015.39 1015.71 1015.63 1015.15 1015.23 1015.75 1015.35 1014.59 1014.19 1013.63 1013.79 1013.99 1014.19 1014.39 1014.55 1014.67 1014.63 1014.79 1014.99 1015.27 1015.59 1015.87 1015.95 1016.27 1016.51 1016.51 1016.59 1016.99 1017.43 1017.91 1018.47 1018.99 1019.39 1020.15 1020.95 1020.83 1020.27 1018.99 1018.67 1018.75 1019.31 1020.11
1019.71 1019.43 1019.27 1019.11 1018.95 1018.91 1018.71 1018.47 1018.39 1018.19 1017.95 1017.79 1017.67 1017.55 1017.47 1017.31 1017.03 1016.75 1016.43 1016.23 1016.03 1016.03 1016.11 1015.91 1015.35 1015.63 1016.19 1015.87 1014.87 1013.79 1013.55 1013.71 1013.99 1014.27 1014.47 1014.63 1014.71 1014.83 1014.91 1014.99 1015.19 1015.51 1015.71 1016.15 1016.59 1016.67 1016.75 1016.79 1016.99 1017.47 1017.91 1018.23 1018.67 1019.11 1020.03 1020.63 1020.95 1020.59 1020.07 1019.87 1020.11 1020.43 1020.59
1020.27 1019.87 1019.71 1019.55 1019.43 1019.23 1019.11 1018.87 1018.67 1018.59 1018.55 1018.51 1018.35 1018.23 1018.07 1017.83 1017.59 1017.43 1017.27 1016.99 1016.83 1016.83 1016.67 1016.31 1015.63 1015.79 1016.27 1015.75 1015.35 1013.99 1013.59 1013.75 1014.19 1014.39 1014.67 1014.87 1015.03 1015.43 1016.03 1015.99 1015.63 1015.55 1016.03 1016.47 1016.83 1016.83 1016.95 1016.79 1016.83 1017.31 1017.75 1018.23 1018.87 1019.39 1019.95 1020.07 1020.31 1020.79 1020.83 1020.55 1020.39 1020.55 1020.79
1021.03 1020.51 1020.03 1019.95 1019.87 1019.79 1019.59 1019.39 1019.15 1018.99 1019.03 1018.95 1018.87 1018.71 1018.59 1018.43 1018.19 1017.91 1017.91 1017.79 1017.51 1017.39 1017.11 1016.63 1016.03 1015.99 1016.27 1015.83 1015.27 1013.87 1013.87 1014.11 1014.47 1014.71 1014.99 1015.47 1015.75 1016.07 1016.55 1016.91 1017.03 1016.55 1016.43 1017.07 1017.19 1017.23 1017.23 1016.83 1016.99 1017.31 1017.83 1018.19 1018.79 1019.39 1019.91 1019.99 1020.03 1020.11 1020.19 1020.47 1020.59 1020.51 1020.75
1021.71 1021.27 1020.59 1020.27 1020.19 1020.11 1019.95 1019.83 1019.67 1019.47 1019.35 1019.23 1019.19 1019.03 1018.91 1018.79 1018.63 1018.63 1018.43 1018.03 1018.27 1018.15 1017.43 1017.35 1016.99 1016.51 1016.63 1016.35 1015.75 1014.47 1014.35 1014.67 1015.11 1015.23 1015.35 1015.71 1016.15 1016.55 1016.83 1017.35 1017.91 1018.03 1017.79 1017.83 1017.83 1017.71 1017.47 1017.27 1017.35 1017.67 1017.87 1018.31 1018.99 1019.63 1019.79 1019.83 1019.95 1019.79 1019.91 1020.15 1020.43 1020.59 1020.83
1022.07 1021.83 1021.35 1020.79 1020.51 1020.35 1020.31 1020.31 1020.27 1020.11 1019.87 1019.71 1019.55 1019.47 1019.43 1019.31 1019.23 1019.15 1018.87 1018.83 1018.95 1018.39 1017.91 1017.71 1017.51 1017.31 1017.23 1016.79 1016.19 1015.63 1015.47 1015.55 1015.55 1015.59 1015.99 1016.79 1017.23 1017.63 1017.91 1018.27 1018.59 1018.87 1018.51 1018.43 1018.27 1018.11 1018.03 1017.99 1017.87 1017.75 1017.83 1018.23 1018.63 1019.19 1019.47 1019.79 1020.11 1020.07 1020.23 1020.47 1020.67 1020.71 1020.87
1022.35 1022.11 1021.75 1021.35 1020.99 1020.87 1020.71 1020.55 1020.55 1020.55 1020.47 1020.31 1020.19 1020.11 1019.95 1019.79 1019.71 1019.63 1019.59 1019.39 1018.91 1018.39 1018.15 1018.27 1018.35 1018.39 1018.07 1017.75 1017.15 1016.51 1016.39 1016.95 1016.55 1016.19 1016.95 1017.87 1018.51 1018.99 1019.27 1019.27 1019.43 1019.67 1019.27 1018.99 1018.87 1018.67 1018.67 1018.75 1018.75 1018.91 1019.19 1018.91 1019.19 1019.43 1019.63 1019.91 1020.11 1020.23 1020.39 1020.55 1020.67 1020.79 1020.99
1022.75 1022.51 1022.23 1021.87 1021.47 1021.19 1020.91 1020.75 1020.71 1020.63 1020.63 1020.63 1020.59 1020.55 1020.47 1020.39 1020.23 1020.11 1019.95 1019.87 1019.67 1019.11 1018.91 1019.07 1019.23 1019.03 1018.75 1018.39 1017.95 1017.75 1017.43 1017.43 1017.35 1017.27 1017.79 1018.67 1019.23 1019.63 1019.83 1019.99 1019.99 1019.87 1019.99 1019.71 1019.47 1019.31 1019.27 1019.47 1019.87 1019.99 1019.75 1019.71 1019.83 1019.83 1019.87 1020.03 1020.27 1020.47 1020.67 1020.95 1021.15 1021.31 1021.51
1022.99 1022.91 1022.75 1022.43 1022.11 1021.79 1021.39 1021.11 1021.15 1021.03 1020.91 1020.75 1020.75 1020.71 1020.75 1020.79 1020.59 1020.39 1020.19 1020.19 1020.03 1019.99 1019.87 1019.71 1019.67 1019.79 1019.71 1019.31 1018.99 1018.63 1018.31 1018.19 1018.19 1018.27 1018.51 1019.19 1019.71 1019.87 1020.23 1020.51 1020.59 1020.07 1020.03 1020.03 1020.19 1020.19 1020.15 1020.27 1020.67 1020.55 1020.39 1020.51 1020.63 1020.59 1020.63 1020.87 1020.91 1021.19 1021.55 1021.91 1022.11 1022.23 1022.35
Wind_Speed
7 8 8 7 6 3 6 6 5 5 7 8 6 7 8 8 8 9 9 9 9 9 10 9 7 8 7 9 11 14 11 8 9 8 8 8 9 8 8 7 5 4 5 4 2 4 3 5 6 4 4 5 5 5 5 6 5 5 3 3 2 3 3
5 6 6 5 3 2 4 2 2 5 5 7 7 7 5 7 7 7 7 9 9 9 9 10 13 14 15 12 12 11 4 5 8 8 6 7 8 7 8 8 7 6 5 4 2 3 4 5 6 7 7 6 6 5 5 4 4 3 3 3 3 3 2
3 3 3 2 4 4 4 5 5 4 4 6 7 9 9 9 8 9 9 9 10 10 9 10 10 11 10 10 9 9 8 11 7 7 7 7 7 7 7 7 7 6 6 5 4 4 4 4 3 7 7 8 7 6 6 5 6 5 4 4 4 3 2
3 3 1 3 5 5 6 6 4 4 4 5 6 6 7 8 9 9 9 9 7 8 9 10 9 9 9 9 8 9 10 9 7 8 7 7 7 7 7 7 8 7 7 7 6 6 5 5 4 4 5 9 8 7 6 5 5 5 4 4 3 3 2
3 3 4 6 6 5 5 5 5 5 6 6 6 6 8 8 7 9 9 9 9 7 6 7 8 8 7 8 8 7 8 9 8 8 8 9 9 7 8 7 7 7 7 6 5 4 4 4 4 4 5 6 7 6 6 5 5 4 5 5 4 3 3
4 4 5 5 7 8 7 6 6 6 7 7 8 7 7 10 9 8 9 9 7 4 7 10 8 8 8 8 9 9 7 10 9 9 8 9 9 8 7 7 8 8 7 7 2 4 4 2 4 5 5 6 5 6 6 7 6 5 4 4 4 4 5
5 6 6 6 7 7 9 9 8 7 7 8 10 10 9 10 9 9 9 9 9 11 10 12 9 9 9 9 10 10 10 9 9 10 10 10 9 9 7 8 9 8 7 6 6 5 4 5 5 5 5 5 5 6 6 7 7 6 5 4 5 5 4
6 5 6 7 8 9 8 8 9 8 7 7 7 7 8 9 10 8 9 9 9 9 10 9 10 9 9 9 10 6 9 10 10 11 10 11 10 11 10 9 8 8 8 6 6 6 6 6 6 6 6 7 6 5 6 6 7 8 6 6 6 6 5
6 7 7 7 7 8 9 8 8 8 8 6 6 7 6 8 8 9 9 8 8 11 11 12 10 9 9 10 8 10 10 8 10 12 10 11 9 11 11 9 7 6 5 7 7 6 6 5 6 5 6 6 7 7 6 6 6 6 8 7 7 7 7
7 8 8 7 7 8 8 8 8 7 8 10 9 9 9 9 7 7 9 11 12 9 10 11 11 11 9 4 8 8 11 10 9 11 10 9 8 7 8 10 6 6 6 7 5 6 6 5 6 6 7 7 7 7 7 7 7 6 9 8 7 8 8
8 7 7 8 7 7 7 7 7 6 8 10 10 9 10 8 8 9 9 8 10 10 10 11 12 12 10 8 12 10 10 10 9 9 10 9 10 10 10 8 9 4 4 5 7 9 7 7 6 6 7 6 5 4 5 7 7 7 7 8 7 8 9
10 7 7 7 7 7 7 6 5 6 8 9 7 8 9 8 7 9 11 13 13 10 10 12 9 6 5 10 10 9 9 9 9 9 9 8 8 8 9 9 7 8 8 10 9 8 7 7 7 7 7 6 6 6 5 5 5 7 6 8 7 7 9
9 8 8 7 6 7 8 7 7 8 8 8 9 9 9 9 10 10 11 11 13 12 11 8 6 10 10 7 6 3 8 9 10 10 9 10 8 10 8 10 9 8 7 7 8 8 7 8 7 7 7 7 6 6 5 4 5 7 6 7 6 6 9
8 9 8 7 7 7 6 6 7 7 6 8 8 9 10 10 10 10 11 10 9 9 7 10 11 12 12 10 8 10 9 10 10 10 9 9 11 9 11 9 9 9 10 7 8 8 8 9 8 7 7 7 7 8 7 5 5 7 6 4 7 6 8
9 8 7 6 7 7 7 6 7 7 7 8 9 10 10 9 10 10 8 8 11 10 6 10 8 9 9 6 8 9 9 11 11 11 10 10 11 8 7 7 10 10 10 12 11 10 10 10 10 9 8 8 8 8 8 7 6 8 8 6 6 6 7
10 12 9 6 6 6 6 7 7 7 7 8 8 9 10 10 9 9 8 7 10 6 8 8 8 6 7 12 13 10 10 11 11 10 11 9 8 7 9 12 12 10 9 10 10 9 9 10 9 10 10 8 9 9 9 8 6 8 10 8 7 7 7
11 10 10 8 8 7 6 7 7 7 8 8 9 9 10 10 10 8 8 8 6 5 6 7 8 10 13 12 11 11 10 11 9 9 10 9 9 9 11 9 9 12 11 11 11 10 9 9 9 9 10 9 9 10 9 7 7 8 8 9 8 8 8
10 9 9 9 10 9 8 7 6 7 7 7 9 9 9 10 10 10 10 11 12 10 7 7 7 8 10 9 10 10 10 10 9 8 9 9 8 11 11 10 10 10 11 11 10 10 10 11 10 10 10 10 9 9 8 7 8 8 9 9 8 6 8
11 11 9 8 9 9 8 7 7 6 7 8 9 9 10 9 9 10 11 11 11 10 6 5 5 6 9 13 9 9 10 8 6 6 8 8 10 12 9 10 10 10 10 11 10 10 11 12 11 11 11 10 12 10 9 9 7 8 8 8 9 7 6
11 11 10 10 8 8 8 7 7 8 6 8 8 9 9 11 9 10 11 11 11 11 8 7 7 5 4 10 11 11 11 11 11 7 8 10 12 10 10 10 10 10 11 11 11 11 11 11 10 11 11 10 12 10 10 9 9 9 8 8 8 8 8
11 12 11 10 10 9 8 8 8 7 8 8 8 8 9 8 8 9 10 11 10 10 9 8 8 7 7 8 11 10 10 10 10 12 12 12 10 10 10 10 10 10 11 11 11 10 10 10 9 10 7 9 9 9 10 9 9 9 9 8 8 8 7
12 12 12 11 11 10 10 9 7 7 7 8 7 8 8 8 8 12 12 10 10 9 9 9 8 7 8 9 11 10 11 10 10 9 10 10 10 10 10 10 10 12 12 9 4 4 4 4 5 5 6 6 2 8 8 9 9 9 9 8 8 8 7
13 13 13 13 12 11 11 10 8 7 8 8 8 9 8 7 9 10 11 10 10 9 9 6 7 13 12 10 12 10 9 9 10 10 9 10 10 10 11 10 8 10 10 8 5 5 5 14 9 4 9 11 8 7 9 9 9 9 9 9 9 9 9
14 14 13 13 12 13 12 11 11 10 8 7 7 8 8 9 7 8 8 9 10 8 7 8 14 17 18 14 10 9 9 9 9 10 9 9 10 10 10 11 7 9 10 6 5 4 8 10 12 11 11 11 9 8 9 9 9 10 8 8 9 8 9
14 14 14 14 13 12 12 11 10 11 11 11 10 7 7 8 9 8 8 9 7 6 5 7 7 6 12 10 8 8 9 9 9 9 9 9 6 8 9 8 7 7 8 8 7 6 6 8 6 5 5 8 4 3 2 4 8 4 5 8 8 8 8
15 15 15 14 13 12 13 12 12 11 11 11 11 10 7 8 9 9 6 6 6 6 4 5 5 12 13 12 9 8 9 9 9 9 9 10 11 10 8 6 7 5 5 6 7 7 7 6 5 4 5 6 3 3 3 2 3 6 10 9 7 8 7
14 15 15 14 14 13 13 13 13 11 10 10 10 10 11 11 9 6 4 4 7 2 4 6 8 8 10 10 10 7 9 8 8 9 10 10 9 9 9 9 8 7 6 8 7 7 7 8 7 6 5 6 5 4 3 2 2 5 8 6 6 7 7
14 15 15 14 14 14 13 13 13 11 10 10 9 9 9 9 8 7 6 5 4 5 5 10 8 6 10 10 9 7 9 7 6 7 8 8 8 8 8 7 8 8 7 8 7 7 8 8 9 8 7 6 5 6 8 6 4 2 6 5 6 7 6
14 14 15 14 15 14 14 13 13 11 11 10 9 9 9 8 9 8 8 6 5 6 6 12 8 8 9 12 10 9 9 6 7 7 7 6 6 6 7 7 6 7 7 8 8 10 8 9 10 10 9 9 9 9 9 7 7 6 9 8 9 9 7
14 14 14 15 15 14 14 13 12 11 11 11 11 11 10 9 8 8 10 9 8 6 8 11 12 12 10 12 7 8 7 6 6 7 6 6 5 5 5 6 7 7 8 6 7 8 10 11 11 11 10 10 9 9 8 7 10 13 15 18 18 16 15
13 14 14 14 14 14 13 12 12 11 11 11 11 11 10 11 11 11 11 10 9 7 6 11 16 14 11 9 11 4 6 6 7 6 6 5 4 5 9 18 8 6 8 8 8 11 11 11 11 11 12 11 10 9 6 6 7 9 13 15 17 17 16
12 13 14 14 13 13 13 11 11 11 10 10 11 10 11 11 12 13 13 11 14 10 7 10 17 16 13 14 11 1 3 3 5 6 6 6 6 6 7 10 16 11 8 9 9 5 0 7 10 10 10 10 9 8 6 6 6 8 8 8 7 9 10
11 12 13 13 12 12 11 11 12 11 11 10 11 11 11 12 14 13 13 13 10 9 9 9 14 17 13 14 15 6 6 4 3 5 5 6 6 7 7 7 10 12 12 11 11 10 8 8 8 8 9 9 9 8 6 7 6 6 8 8 8 8 9
11 11 11 11 11 12 11 12 11 11 10 10 11 12 13 12 13 13 13 12 11 14 14 12 14 20 16 14 15 11 8 7 4 5 7 8 7 6 6 7 6 10 12 12 12 13 13 12 6 7 7 8 8 10 9 8 6 6 8 9 8 8 7
9 7 8 10 12 12 12 12 11 11 9 9 11 11 11 11 12 12 12 13 14 14 18 23 13 17 17 17 16 14 10 8 6 7 10 9 8 8 7 6 6 8 11 12 13 15 16 14 14 9 10 14 15 12 9 8 7 7 7 7 6 6 6
9 8 8 9 11 12 11 11 11 11 10 8 9 10 11 11 11 12 12 12 12 13 14 15 19 16 18 18 18 17 15 11 13 10 10 9 8 7 5 5 6 12 13 14 14 15 16 17 13 9 13 14 12 12 9 6 6 6 6 6 6 6 6
10 9 10 9 9 11 12 11 10 9 9 9 8 10 11 11 11 12 12 12 13 12 11 10 15 18 15 17 17 18 18 18 15 11 11 9 7 7 6 5 6 13 15 16 17 16 16 14 10 13 14 13 12 8 6 6 6 6 6 6 6 5 5
Wind_Direction
271 279 272 255 228 200 199 203 178 195 215 229 230 225 214 221 221 221 218 214 209 201 197 194 194 201 211 211 201 205 210 196 197 204 195 196 180 205 204 215 223 256 258 215 248 222 202 182 178 202 204 193 207 203 196 182 190 190 177 191 196 188 186
275 280 280 268 227 138 161 141 176 196 221 235 247 249 237 221 218 221 224 217 213 210 206 202 198 201 203 203 191 194 167 212 189 206 204 190 198 199 192 206 216 218 219 209 212 230 222 195 180 183 191 193 210 185 188 186 174 176 184 177 184 190 178
289 271 274 265 136 148 171 191 205 216 215 230 226 235 227 220 215 211 215 219 217 214 207 209 202 204 201 207 202 193 171 217 184 206 202 192 196 204 200 198 204 204 215 198 198 198 221 279 244 184 190 183 196 186 178 173 172 168 180 174 192 199 179
260 243 190 215 179 158 175 186 200 204 215 232 233 233 237 228 219 216 214 217 220 216 212 211 202 201 197 202 199 200 199 196 192 195 199 197 196 200 200 204 205 203 208 201 193 197 209 191 217 189 187 191 193 169 187 174 177 175 176 181 186 183 177
256 251 215 160 182 179 177 184 189 205 220 222 225 233 239 235 225 222 215 215 214 212 220 231 205 198 195 199 197 196 200 199 199 194 196 198 202 200 199 207 213 213 210 212 205 201 191 222 212 191 189 187 184 177 152 165 178 171 183 191 173 169 184
230 224 224 194 200 192 181 166 184 213 215 209 212 210 221 229 225 222 219 216 209 201 224 234 211 200 194 197 199 194 205 202 199 196 196 200 199 206 194 209 217 212 210 209 228 207 199 258 183 207 180 183 191 158 164 167 172 179 192 183 183 187 182
248 221 218 197 188 208 195 184 187 199 205 215 212 207 201 208 212 220 219 222 214 201 202 220 208 200 198 201 199 199 195 199 194 195 199 196 202 204 202 205 209 210 215 217 205 209 202 205 206 209 170 175 188 177 160 176 165 171 174 200 191 189 173
277 241 227 219 199 204 212 201 198 199 200 201 213 218 209 208 214 217 226 221 223 216 202 209 214 205 201 206 201 173 212 197 195 196 202 202 201 201 206 216 200 215 207 200 208 216 202 207 214 191 184 180 178 189 177 184 177 214 177 177 191 182 175
279 279 259 229 217 209 211 219 216 213 216 222 219 207 192 202 216 225 227 223 225 226 213 210 204 203 205 204 214 178 204 203 192 197 202 204 202 198 204 211 204 216 220 217 210 208 235 194 212 184 190 201 185 177 186 192 203 203 171 177 184 184 172
273 255 259 252 237 230 221 222 224 214 210 219 218 208 205 201 211 227 235 229 225 218 222 216 207 206 200 196 241 183 206 187 195 195 205 190 213 188 220 204 204 204 210 236 249 223 202 217 208 195 199 204 194 196 181 198 199 203 180 187 179 174 176
277 272 275 273 258 249 236 235 233 226 225 222 218 209 202 194 194 201 223 241 236 221 217 217 210 208 196 187 216 200 194 192 191 200 200 208 199 193 206 191 208 177 216 219 214 235 198 201 208 196 203 204 202 227 185 204 182 201 182 187 193 174 181
303 279 268 269 279 277 269 260 248 243 234 229 221 221 210 204 206 213 217 221 226 219 213 221 212 229 172 201 215 211 190 194 195 198 200 202 206 196 198 207 201 197 202 208 209 206 208 198 201 199 197 207 185 214 213 225 194 172 201 177 196 166 174
313 299 281 270 267 272 272 264 251 241 240 234 231 229 222 214 208 213 220 223 227 219 214 216 196 208 211 215 203 224 213 196 198 204 200 202 206 204 202 200 200 206 202 205 205 204 204 200 203 203 190 199 184 200 206 221 247 158 193 173 175 166 166
315 309 303 290 281 279 286 283 271 259 247 239 236 236 229 220 218 222 224 230 235 234 214 220 206 206 203 195 194 206 200 203 209 204 206 199 212 207 202 199 196 200 204 191 227 202 200 197 195 204 200 188 188 185 198 206 218 154 155 162 167 170 161
329 318 312 307 307 308 301 294 286 269 255 252 242 241 233 222 223 225 234 238 236 223 206 227 241 222 206 223 205 201 199 199 207 206 201 204 211 213 172 169 213 203 204 195 210 198 195 199 191 198 197 194 189 181 199 197 204 156 158 166 169 158 155
350 337 333 325 319 314 313 302 286 275 265 257 247 246 238 226 221 222 216 223 232 202 204 240 226 259 255 204 206 199 204 201 198 203 201 200 216 205 217 194 193 202 207 208 203 213 201 201 198 200 196 195 191 181 184 211 182 170 166 167 171 166 165
350 350 341 336 329 320 308 297 292 290 285 274 262 248 242 233 224 212 211 213 212 203 194 197 227 218 223 213 206 203 203 199 194 195 200 189 207 223 218 215 208 192 196 203 202 206 206 203 206 203 199 189 195 179 179 202 194 169 165 156 181 174 163
347 342 337 335 331 326 318 307 299 284 274 269 269 263 250 237 232 219 212 220 223 217 203 208 200 204 238 243 219 212 203 203 194 191 195 204 210 226 210 212 211 202 198 204 203 206 205 204 203 207 202 188 191 177 176 190 187 179 166 167 170 184 151
347 344 336 332 330 323 309 299 292 283 274 265 264 258 252 247 234 227 223 222 222 215 198 204 202 202 226 230 220 217 213 185 201 196 213 222 217 220 214 209 212 208 202 206 205 206 209 202 204 206 204 194 188 175 178 181 188 182 183 170 166 165 172
348 346 341 334 323 313 307 297 292 284 272 261 265 267 247 249 239 235 229 223 219 215 203 199 209 214 228 255 222 216 214 203 185 211 223 221 219 214 214 210 211 209 207 207 209 206 207 205 203 209 199 200 194 169 179 181 184 179 189 178 174 180 178
349 346 342 336 331 324 315 306 299 288 277 267 254 256 265 256 251 244 239 231 221 216 205 202 212 213 206 228 241 220 218 218 206 190 206 210 210 208 210 213 213 211 210 207 211 205 206 205 202 205 199 199 192 172 181 183 188 183 185 187 183 185 183
348 348 348 344 342 336 321 307 293 289 283 269 260 255 251 248 254 248 235 225 219 211 205 204 206 205 208 213 230 220 220 214 212 211 204 209 209 207 207 214 214 213 208 213 238 336 248 214 210 175 49 5 214 178 188 187 190 193 188 191 192 193 188
351 351 351 349 349 341 334 320 303 297 294 288 278 267 260 248 241 252 253 229 218 218 217 211 208 198 217 208 216 214 211 211 209 206 202 207 207 206 211 210 205 56 31 63 98 120 84 80 78 134 168 179 203 193 195 193 192 195 196 193 198 193 193
355 356 352 352 351 349 345 342 336 325 309 294 279 271 266 264 256 241 252 267 240 223 219 207 202 192 213 227 218 212 210 206 205 203 198 204 206 202 208 210 180 150 160 136 125 118 100 105 150 186 198 202 204 205 197 200 198 196 202 196 194 197 197
359 358 356 354 355 352 350 351 350 345 338 323 308 298 276 253 247 246 240 234 225 238 246 82 123 228 238 211 215 222 214 213 208 208 203 194 205 210 198 198 197 169 192 192 188 149 107 114 162 200 198 203 220 317 46 146 232 226 242 202 193 191 198
1 2 1 0 358 358 356 356 356 358 354 347 340 330 303 274 255 248 224 196 230 248 275 45 204 204 218 220 205 229 219 216 213 210 203 205 198 200 195 188 187 188 159 126 182 187 161 135 123 159 103 117 74 18 315 28 5 152 217 247 193 184 195
6 4 4 4 4 5 4 4 2 1 1 2 4 5 7 8 12 14 329 261 214 147 82 15 359 318 261 220 206 223 227 213 216 210 210 207 205 201 195 192 191 183 159 180 196 178 166 154 155 150 170 190 186 110 71 77 215 291 293 239 187 175 162
10 9 8 8 8 9 9 7 6 6 8 10 11 15 10 12 12 9 14 10 37 56 35 11 5 332 286 244 203 226 225 214 209 211 209 207 207 205 199 197 201 199 176 182 186 178 167 159 157 158 161 163 148 99 48 14 3 305 211 197 170 126 104
12 12 12 12 12 11 11 12 10 9 12 15 17 14 21 20 18 16 17 34 43 44 27 14 22 4 275 241 192 212 205 184 190 185 185 182 187 187 189 191 191 175 169 185 140 166 172 155 142 130 123 109 88 69 61 36 4 14 40 48 59 64 63
13 14 14 14 14 13 12 13 15 13 16 21 22 23 23 24 19 20 23 22 26 29 26 10 33 23 309 278 225 214 172 177 171 174 165 160 157 162 171 190 193 188 181 152 128 149 141 149 140 138 135 117 110 104 103 84 52 52 70 78 82 83 79
14 17 18 17 16 16 15 15 20 20 23 22 24 24 24 31 35 37 31 27 23 20 8 22 36 37 351 337 297 247 155 161 156 150 137 124 117 80 37 25 5 184 160 132 133 139 161 155 133 126 123 117 106 99 100 105 97 75 70 78 85 87 85
14 18 23 23 21 19 17 19 21 28 29 29 31 31 32 34 38 41 36 25 17 20 12 16 32 33 12 2 327 17 69 121 144 131 118 99 87 91 61 44 27 26 93 111 109 92 231 138 118 122 118 109 109 112 118 118 109 113 114 106 101 100 99
20 17 24 30 29 29 28 26 28 31 34 36 36 36 38 39 40 38 36 34 19 5 26 20 23 33 30 23 352 12 58 62 84 108 109 107 100 77 76 63 40 35 61 64 50 44 41 92 120 122 127 125 133 124 136 128 122 118 109 105 97 91 92
28 28 26 32 35 39 37 36 34 32 34 36 39 40 37 37 39 37 34 36 34 36 37 28 22 24 25 30 31 25 54 45 69 98 85 67 55 60 58 56 61 39 58 60 62 56 53 48 51 142 144 151 131 119 125 119 90 98 109 107 112 113 111
22 20 25 36 43 43 42 44 44 42 40 37 41 42 41 41 41 41 36 35 35 36 36 35 29 25 28 33 40 49 63 35 19 94 86 79 66 56 46 48 62 41 58 64 64 63 57 56 58 55 60 87 96 103 109 113 119 121 122 128 123 121 116
15 11 11 19 38 40 38 40 40 41 42 37 39 38 39 37 40 44 45 38 33 34 35 37 32 30 31 37 42 45 55 62 53 63 80 80 73 72 58 58 72 72 60 60 62 63 66 64 55 63 68 66 73 87 109 113 114 115 110 106 110 113 117
28 18 11 10 19 33 38 40 37 31 32 34 33 39 38 38 39 40 38 37 35 30 28 33 31 29 31 41 47 48 50 53 52 78 81 86 79 72 65 49 62 76 73 67 62 63 65 64 70 60 60 60 51 48 74 93 102 100 100 99 98 96 90